| time (UTC) | temp F | wind direction | speed MPH | gust MPH | rain 1hr in | rain 24hr in | rain mn in | humidity % | barometer mb |
| 20260831035950 | 70 | 136 | 0.0 | 0.0 | 0.00 | 0.00 | 0.00 | 94 | 1019.3 |
| 20260831034446 | 70 | 136 | 0.0 | 0.0 | 0.00 | 0.00 | 0.00 | 93 | 1019.3 |
| 20260831032946 | 70 | 134 | 1.0 | 3.0 | 0.00 | 0.00 | 0.00 | 92 | 1019.5 |
| 20260831031446 | 70 | 119 | 1.0 | 4.0 | 0.00 | 0.00 | 0.00 | 92 | 1019.5 |
| 20260831024446 | 72 | 67 | 2.0 | 12.0 | 0.00 | 0.00 | 0.00 | 90 | 1019.7 |
| 20260831022947 | 74 | 98 | 4.0 | 9.0 | 0.00 | 0.00 | 0.00 | 94 | 1019.9 |
| 20260831021446 | 74 | 305 | 0.0 | 0.0 | 0.00 | 0.00 | 0.00 | 94 | 1019.5 |
| 20260831015950 | 74 | 305 | 0.0 | 0.0 | 0.00 | 0.00 | 0.00 | 93 | 1019.5 |
| 20260831014447 | 75 | 304 | 0.0 | 0.0 | 0.00 | 0.00 | 0.00 | 92 | 1019.3 |
| 20260831012946 | 75 | 304 | 0.0 | 0.0 | 0.00 | 0.00 | 0.00 | 91 | 1019.5 |
| 20260831011446 | 76 | 305 | 0.0 | 0.0 | 0.00 | 0.00 | 0.00 | 87 | 1019.6 |
| 20260831005949 | 77 | 305 | 1.0 | 2.0 | 0.00 | 0.00 | 0.00 | 86 | 1019.6 |
| 20260831002947 | 77 | 270 | 0.0 | 2.0 | 0.00 | 0.00 | 0.00 | 86 | 1019.0 |
| 20260831001446 | 77 | 262 | 0.0 | 2.0 | 0.00 | 0.00 | 0.00 | 86 | 1018.7 |
| 20260830235949 | 77 | 262 | 1.0 | 4.0 | 0.00 | 0.00 | 0.00 | 85 | 1018.8 |
| 20260830234448 | 77 | 268 | 0.0 | 2.0 | 0.00 | 0.00 | 0.00 | 85 | 1018.7 |
| 20260830232946 | 78 | 262 | 0.0 | 2.0 | 0.00 | 0.00 | 0.00 | 85 | 1018.8 |
| 20260830231446 | 78 | 305 | 0.0 | 2.0 | 0.00 | 0.00 | 0.00 | 85 | 1018.8 |
| 20260830225949 | 78 | 244 | 0.0 | 1.0 | 0.00 | 0.00 | 0.00 | 85 | 1018.7 |
| 20260830222947 | 80 | 274 | 0.0 | 1.0 | 0.00 | 0.00 | 0.00 | 83 | 1018.7 |
| 20260830221446 | 80 | 304 | 1.0 | 5.0 | 0.00 | 0.00 | 0.00 | 82 | 1018.8 |
| 20260830215949 | 80 | 250 | 2.0 | 7.0 | 0.00 | 0.00 | 0.00 | 83 | 1018.8 |
| 20260830214446 | 80 | 286 | 1.0 | 6.0 | 0.00 | 0.00 | 0.00 | 82 | 1018.6 |
| 20260830212947 | 80 | 328 | 1.0 | 4.0 | 0.00 | 0.00 | 0.00 | 82 | 1018.7 |
| 20260830211446 | 80 | 282 | 2.0 | 5.0 | 0.00 | 0.00 | 0.00 | 82 | 1018.6 |
| 20260830205950 | 80 | 296 | 4.0 | 9.0 | 0.00 | 0.00 | 0.00 | 81 | 1018.8 |
| 20260830204446 | 80 | 280 | 2.0 | 5.0 | 0.00 | 0.00 | 0.00 | 82 | 1018.8 |
| 20260830194446 | 79 | 327 | 3.0 | 7.0 | 0.00 | 0.00 | 0.00 | 85 | 1019.4 |
| 20260830192946 | 77 | 296 | 3.0 | 7.0 | 0.00 | 0.00 | 0.00 | 90 | 1019.6 |
| 20260830191446 | 75 | 316 | 3.0 | 7.0 | 0.00 | 0.00 | 0.00 | 91 | 1020.0 |
| 20260830185950 | 75 | 321 | 2.0 | 5.0 | 0.00 | 0.00 | 0.00 | 89 | 1020.2 |
| 20260830184447 | 77 | 315 | 3.0 | 6.0 | 0.00 | 0.00 | 0.00 | 84 | 1020.5 |
| 20260830182946 | 77 | 319 | 2.0 | 7.0 | 0.00 | 0.00 | 0.00 | 82 | 1020.3 |
| 20260830181446 | 78 | 340 | 4.0 | 7.0 | 0.00 | 0.00 | 0.00 | 80 | 1020.5 |
| 20260830174446 | 79 | 274 | 5.0 | 10.0 | 0.00 | 0.00 | 0.00 | 79 | 1020.6 |
| 20260830172948 | 80 | 299 | 5.0 | 12.0 | 0.00 | 0.00 | 0.00 | 78 | 1020.8 |
| 20260830171446 | 80 | 276 | 5.0 | 13.0 | 0.00 | 0.00 | 0.00 | 77 | 1020.8 |
| 20260830165949 | 77 | 283 | 4.0 | 8.0 | 0.00 | 0.00 | 0.00 | 82 | 1021.1 |
| 20260830161446 | 78 | 314 | 5.0 | 10.0 | 0.00 | 0.00 | 0.00 | 80 | 1021.5 |
| 20260830155948 | 77 | 287 | 4.0 | 10.0 | 0.00 | 0.00 | 0.00 | 81 | 1021.6 |
| 20260830154446 | 77 | 341 | 5.0 | 10.0 | 0.00 | 0.00 | 0.00 | 81 | 1021.7 |
| 20260830152947 | 76 | 295 | 4.0 | 9.0 | 0.00 | 0.00 | 0.00 | 84 | 1021.7 |
| 20260830151446 | 76 | 303 | 5.0 | 12.0 | 0.00 | 0.00 | 0.00 | 84 | 1021.8 |
| 20260830145949 | 76 | 326 | 5.0 | 12.0 | 0.00 | 0.00 | 0.00 | 84 | 1021.7 |
| 20260830144446 | 75 | 298 | 3.0 | 8.0 | 0.00 | 0.00 | 0.00 | 85 | 1021.7 |
| 20260830141446 | 75 | 316 | 3.0 | 10.0 | 0.00 | 0.00 | 0.00 | 89 | 1021.9 |
| 20260830135948 | 73 | 299 | 3.0 | 6.0 | 0.00 | 0.00 | 0.00 | 91 | 1022.0 |
| 20260830134446 | 71 | 300 | 2.0 | 6.0 | 0.00 | 0.00 | 0.00 | 92 | 1022.1 |
| 20260830132947 | 70 | 308 | 3.0 | 9.0 | 0.00 | 0.00 | 0.00 | 93 | 1022.3 |
| 20260830131446 | 70 | 286 | 3.0 | 6.0 | 0.00 | 0.00 | 0.00 | 93 | 1022.4 |
| 20260830125949 | 70 | 283 | 3.0 | 9.0 | 0.00 | 0.00 | 0.00 | 93 | 1022.7 |
| 20260830124446 | 68 | 276 | 2.0 | 6.0 | 0.00 | 0.00 | 0.00 | 93 | 1022.8 |
| 20260830122946 | 68 | 264 | 3.0 | 6.0 | 0.00 | 0.00 | 0.00 | 92 | 1022.8 |
| 20260830121446 | 67 | 264 | 2.0 | 5.0 | 0.00 | 0.00 | 0.00 | 92 | 1022.8 |
| 20260830115949 | 67 | 269 | 2.0 | 4.0 | 0.00 | 0.00 | 0.00 | 92 | 1022.8 |
| 20260830114447 | 66 | 282 | 3.0 | 5.0 | 0.00 | 0.00 | 0.00 | 92 | 1022.8 |
| 20260830112946 | 65 | 268 | 2.0 | 4.0 | 0.00 | 0.00 | 0.00 | 92 | 1022.8 |
| 20260830111446 | 65 | 266 | 0.0 | 0.0 | 0.00 | 0.00 | 0.00 | 92 | 1022.7 |
| 20260830105950 | 64 | 264 | 0.0 | 0.0 | 0.00 | 0.00 | 0.00 | 91 | 1022.8 |
| 20260830104446 | 64 | 199 | 0.0 | 0.0 | 0.00 | 0.00 | 0.00 | 91 | 1022.6 |
| 20260830101447 | 64 | 259 | 0.0 | 3.0 | 0.00 | 0.00 | 0.00 | 91 | 1022.6 |
| 20260830095948 | 64 | 246 | 0.0 | 1.0 | 0.00 | 0.00 | 0.00 | 92 | 1022.6 |
| 20260830094446 | 63 | 255 | 0.0 | 1.0 | 0.00 | 0.00 | 0.00 | 92 | 1022.7 |
| 20260830091448 | 62 | 298 | 0.0 | 0.0 | 0.00 | 0.00 | 0.00 | 89 | 1022.7 |
| 20260830085948 | 62 | 200 | 0.0 | 0.0 | 0.00 | 0.00 | 0.00 | 87 | 1022.6 |
| 20260830084446 | 63 | 200 | 0.0 | 0.0 | 0.00 | 0.00 | 0.00 | 86 | 1022.6 |
| 20260830082947 | 64 | 201 | 0.0 | 2.0 | 0.00 | 0.00 | 0.00 | 85 | 1022.6 |
| 20260830081446 | 64 | 246 | 0.0 | 2.0 | 0.00 | 0.00 | 0.00 | 85 | 1022.7 |
| 20260830075948 | 64 | 251 | 0.0 | 0.0 | 0.00 | 0.00 | 0.00 | 83 | 1023.2 |
| 20260830074446 | 64 | 251 | 0.0 | 0.0 | 0.00 | 0.00 | 0.00 | 79 | 1023.2 |
| 20260830072947 | 65 | 251 | 0.0 | 0.0 | 0.00 | 0.00 | 0.00 | 77 | 1023.1 |
| 20260830071446 | 65 | 251 | 0.0 | 2.0 | 0.00 | 0.00 | 0.00 | 74 | 1023.1 |
| 20260830065949 | 65 | 282 | 0.0 | 2.0 | 0.00 | 0.00 | 0.00 | 71 | 1023.2 |
| 20260830064446 | 65 | 250 | 0.0 | 1.0 | 0.00 | 0.00 | 0.00 | 72 | 1023.2 |
| 20260830062946 | 65 | 279 | 0.0 | 2.0 | 0.00 | 0.00 | 0.00 | 72 | 1023.3 |
| 20260830054446 | 63 | 271 | 0.0 | 0.0 | 0.00 | 0.00 | 0.00 | 76 | 1023.3 |
| 20260830051446 | 61 | 285 | 0.0 | 0.0 | 0.00 | 0.00 | 0.00 | 82 | 1023.5 |
| 20260830045950 | 62 | 285 | 0.0 | 0.0 | 0.00 | 0.00 | 0.00 | 82 | 1023.4 |
| 20260830044447 | 62 | 285 | 0.0 | 0.0 | 0.00 | 0.00 | 0.00 | 81 | 1023.3 |
| 20260830042948 | 61 | 285 | 0.0 | 0.0 | 0.00 | 0.00 | 0.00 | 83 | 1023.0 |